• Join FlightAware (Why Join?)
  • Login
  • US Flag 
12:15AM EDT


 

Airport Tracker/Info


-or-


 

Live Flight TrackerFlight Track Log ✈ EJM685 ✈ 09-Aug-2013 ✈ KDET - KFOK

Flight Track Log - Related Links

Times and Time Zones

All times are in EDT time to prevent confusion due to time zone crossing. See the EJM685 flight status page for this flight to view local times or setup timezone preferences in your user account.

Time Position Orientation Groundspeed Altitude Reporting Facility
EDT Latitude Longitude Course Direction KTS MPH feet Rate Location/Type
11:32PM 42.4239 -83.0247 348° North 151 174 1,700  Level Cleveland Center
11:33PM 42.4797 -83.0408 348° North 212 244 3,700 2,220 Climbing Cleveland Center
11:34PM 42.4669 -82.9533 101° East 221 254 6,500 3,180 Climbing Cleveland Center
11:35PM 42.4253 -82.8561 120° Southeast 216 249 10,200 3,180 Climbing Cleveland Center
11:36PM 42.4047 -82.7258 102° East 307 353 12,900 2,700 Climbing Cleveland Center
11:37PM 42.3844 -82.5789 101° East 346 398 15,600 2,700 Climbing Cleveland Center
11:38PM 42.3661 -82.4239 99° East 390 449 18,300 2,640 Climbing Cleveland Center
11:39PM 42.3583 -82.2550 94° East 418 481 20,900 2,520 Climbing Cleveland Center
11:40PM 42.3525 -82.0833 93° East 450 518 23,400 2,520 Climbing Cleveland Center
11:41PM 42.3442 -81.8978 93° East 474 545 26,000 2,340 Climbing Cleveland Center
11:42PM 42.3378 -81.7347 93° East 481 554 28,100 1,860 Climbing Cleveland Center
11:43PM 42.3289 -81.5492 94° East 492 566 29,800 1,560 Climbing Cleveland Center
11:44PM 42.3181 -81.3442 94° East 519 597 31,300 1,620 Climbing Cleveland Center
11:45PM 42.3089 -81.1392 93° East 544 626 33,100 2,040 Climbing Cleveland Center
11:46PM 42.2972 -80.9283 94° East 555 639 35,400 2,280 Climbing Cleveland Center
11:47PM 42.2831 -80.7067 95° East 555 639 37,700 2,100 Climbing Cleveland Center
11:48PM 42.2558 -80.5047 100° East 544 626 39,600 1,860 Climbing Cleveland Center
11:49PM 42.2286 -80.3083 101° East 538 619 41,500 1,620 Climbing Cleveland Center
11:50PM 42.2050 -80.1122 99° East 531 611 42,900 1,200 Climbing Cleveland Center
11:51PM 42.1811 -79.9386 100° East 525 604 43,900 1,020 Climbing Cleveland Center
11:52PM 42.1508 -79.7486 102° East 519 597 45,000 540 Climbing Cleveland Center
11:53PM 42.1264 -79.5558 100° East 519 597 45,000  Level Cleveland Center
11:54PM 42.0953 -79.3603 102° East 524 603 45,000  Level Cleveland Center
11:55PM 42.0681 -79.1650 101° East 529 609 45,000  Level Cleveland Center
11:56PM 42.0383 -78.9728 102° East 533 613 45,000  Level Cleveland Center
11:57PM 42.0083 -78.7722 101° East 533 613 45,000  Level Cleveland Center
11:58PM 41.9781 -78.5778 102° East 533 613 45,000  Level Cleveland Center
11:59PM 41.9494 -78.3858 101° East 527 606 45,000  Level Cleveland Center
12:00AM 41.9161 -78.1750 102° East 527 606 45,000  Level Cleveland Center
12:02AM 41.8419 -77.7731 104° East 523 602 45,000  Level New York Center
12:03AM 41.7942 -77.5900 109° East 523 602 45,000  Level New York Center
12:04AM 41.7464 -77.4044 109° East 528 608 45,000  Level New York Center
12:05AM 41.6961 -77.2217 110° East 522 601 45,000  Level New York Center
12:07AM 41.6433 -77.0607 109° East  Level FlightAware Approximate
12:07AM 41.5967 -76.8542 109° East 522 601 45,000  Level New York Center
12:08AM 41.5475 -76.6750 110° East 522 601 43,900 -1,740 Descending New York Center
12:09AM 41.4967 -76.4794 109° East 517 595 41,500 -2,580 Descending New York Center
12:10AM 41.4411 -76.2892 111° Southeast 532 612 38,900 -2,640 Descending New York Center
12:11AM 41.3897 -76.0942 109° East 544 626 36,400 -2,280 Descending New York Center
12:12AM 41.3406 -75.9328 112° Southeast 549 632 34,400 -2,280 Descending New York Center
12:13AM 41.2881 -75.7492 111° Southeast 535 616 31,900 -2,700 Descending New York Center
12:14AM 41.2233 -75.5458 113° Southeast 535 616 29,000 -2,580 Descending New York Center
12:15AM 41.1656 -75.3736 114° Southeast 524 603 26,700 -2,340 Descending New York Center
12:16AM 41.1097 -75.2047 114° Southeast 511 588 24,400 -1,920 Descending New York Center
12:17AM 41.0550 -75.0442 114° Southeast 490 564 23,000 -720 Descending New York Center
12:18AM 41.0047 -74.8817 112° Southeast 478 550 23,000 -360 Level New York Center
12:19AM 40.9792 -74.7125 101° East 473 544 22,300 -900 Descending New York Center
12:20AM 40.9597 -74.5436 99° East 467 537 21,300 -960 Descending New York Center
12:21AM 40.9439 -74.3781 97° East 461 531 20,400 -960 Descending New York Center
12:22AM 40.9258 -74.2233 99° East 446 513 19,500 -900 Descending New York Center
12:23AM 40.9167 -74.1500 99° East 403 464 19,100 -360 Descending New York TRACON
12:24AM 40.8333 -74.0500 138° Southeast 353 406 19,000 -840 Descending New York TRACON
12:25AM 40.7667 -73.9667 137° Southeast 350 403 17,500 -1,740 Descending New York TRACON
12:26AM 40.7000 -73.9000 143° Southeast 340 391 15,800 -1,740 Descending New York TRACON
12:27AM 40.6167 -73.8167 143° Southeast 384 442 14,200 -1,620 Descending New York TRACON
12:28AM 40.5500 -73.7333 136° Southeast 301 346 12,600 -1,740 Descending New York TRACON
12:29AM 40.4833 -73.6667 143° Southeast 314 361 10,800 -1,800 Descending New York TRACON
12:30AM 40.5000 -73.5500 79° East 317 365 9,100 -1,620 Descending New York TRACON
12:31AM 40.5167 -73.4500 78° East 306 352 7,800 -1,620 Descending New York TRACON
12:32AM 40.5497 -73.2783 76° East 294 338 5,100 -1,620 Descending New York Center
12:33AM 40.5828 -73.1867 65° Northeast 286 329 3,500 -1,560 Descending New York Center
12:34AM 40.6222 -73.0981 60° Northeast 273 314 2,000 -780 Descending New York Center
12:35AM 40.6592 -73.0172 59° Northeast 273 314 2,000  Level New York Center
12:36AM 40.7025 -72.9228 59° Northeast 273 314 2,000  Level New York Center
12:38AM 40.7500 -72.8000 63° Northeast 278 320 2,100  Climbing New York TRACON
12:39AM 40.8000 -72.7167 52° Northeast 275 316 2,100  Level New York TRACON
12:40AM 40.8500 -72.6667 37° Northeast 222 255 2,100  Level New York TRACON
12:41AM 40.9000 -72.6500 14° North 200 230 2,100  Level New York TRACON
12:42AM 40.9167 -72.6167 57° Northeast 206 237 2,100 -540 Level New York TRACON
12:43AM 40.8833 -72.5833 143° Southeast 171 197 1,100 -900 Descending New York TRACON
12:44AM 40.8500 -72.6167 217° Southwest 129 148 400 -360 Descending New York TRACON
12:45AM 40.8500 -72.6333 270° West 126 145 400  Level New York TRACON
12:47AM 40.8437 -72.6318 180° South  Level Estimated
12:54AM 40.8437 -72.6318 180° South  Level Estimated